TimeEST,TemperatureF,Dew PointF,Humidity,Sea Level PressureIn,VisibilityMPH,Wind Direction,Wind SpeedMPH,Gust SpeedMPH,PrecipitationIn,Events,Conditions,WindDirDegrees,DateUTC
12:15 AM,55.4,51.8,88,29.95,10.0,Calm,Calm,-,N/A,,Partly Cloudy,0,2013-02-25 05:15:00
12:35 AM,57.2,50.0,77,29.94,10.0,East,3.5,-,N/A,,Clear,90,2013-02-25 05:35:00
12:55 AM,55.4,53.6,94,29.95,10.0,Calm,Calm,-,N/A,,Clear,0,2013-02-25 05:55:00
1:15 AM,55.4,55.4,100,29.95,10.0,Calm,Calm,-,N/A,,Clear,0,2013-02-25 06:15:00
1:35 AM,55.4,55.4,100,29.95,10.0,Calm,Calm,-,N/A,,Clear,0,2013-02-25 06:35:00
1:55 AM,55.4,55.4,100,29.93,10.0,Calm,Calm,-,N/A,Rain-Thunderstorm,Light Rain,0,2013-02-25 06:55:00
2:15 AM,55.4,55.4,100,29.93,10.0,Calm,Calm,-,N/A,Rain,Light Rain,0,2013-02-25 07:15:00
2:55 AM,57.2,55.4,94,29.92,5.0,Calm,Calm,-,N/A,Rain,Light Rain,0,2013-02-25 07:55:00
3:15 AM,57.2,57.2,100,29.91,8.0,Calm,Calm,-,N/A,Rain,Light Rain,0,2013-02-25 08:15:00
3:35 AM,57.2,57.2,100,29.90,5.0,Calm,Calm,-,N/A,Rain,Light Rain,0,2013-02-25 08:35:00
3:55 AM,57.2,57.2,100,29.91,8.0,Calm,Calm,-,N/A,Rain,Light Rain,0,2013-02-25 08:55:00
4:15 AM,59.0,59.0,100,29.89,5.0,NE,3.5,-,N/A,Rain,Light Rain,40,2013-02-25 09:15:00
4:35 AM,59.0,59.0,100,29.91,10.0,Calm,Calm,-,N/A,Rain,Light Rain,0,2013-02-25 09:35:00
4:55 AM,59.0,59.0,100,29.91,6.0,Calm,Calm,-,N/A,Rain,Light Rain,0,2013-02-25 09:55:00
5:15 AM,59.0,59.0,100,29.90,5.0,Calm,Calm,-,N/A,Rain,Light Rain,0,2013-02-25 10:15:00
5:35 AM,59.0,59.0,100,29.90,6.0,ENE,3.5,-,N/A,Rain-Thunderstorm,Light Rain,70,2013-02-25 10:35:00
5:55 AM,59.0,59.0,100,29.91,4.0,North,6.9,-,0.02,Rain-Thunderstorm,Light Rain,350,2013-02-25 10:55:00
6:15 AM,59.0,59.0,100,29.91,3.0,NE,5.8,-,N/A,Rain-Thunderstorm,Light Rain,40,2013-02-25 11:15:00
6:35 AM,59.0,59.0,100,29.92,1.8,NNE,11.5,-,0.03,Rain-Thunderstorm,Light Rain,20,2013-02-25 11:35:00
6:50 AM,59.0,59.0,100,29.90,1.8,NNE,15.0,-,N/A,,Overcast,30,2013-02-25 11:50:00
7:50 AM,59.0,59.0,100,29.93,2.5,NNE,13.8,-,N/A,Rain,Rain,30,2013-02-25 12:50:00
8:10 AM,59.0,59.0,100,29.91,3.0,ENE,13.8,24.2,N/A,Rain,Light Rain,60,2013-02-25 13:10:00
8:50 AM,60.8,60.8,100,29.94,5.0,East,9.2,-,N/A,,Mostly Cloudy,90,2013-02-25 13:50:00
9:50 AM,62.6,62.6,100,29.93,7.0,ENE,15.0,-,N/A,,Mostly Cloudy,70,2013-02-25 14:50:00
10:50 AM,62.6,60.8,94,29.92,7.0,ENE,11.5,-,N/A,,Overcast,70,2013-02-25 15:50:00
11:50 AM,62.6,62.6,100,29.93,7.0,East,8.1,-,N/A,,Overcast,90,2013-02-25 16:50:00
12:50 PM,62.6,60.8,94,29.94,3.0,Variable,4.6,-,N/A,Rain,Rain,0,2013-02-25 17:50:00
1:50 PM,60.8,60.8,100,29.88,7.0,ENE,8.1,-,N/A,,Mostly Cloudy,60,2013-02-25 18:50:00
2:50 PM,60.8,60.8,100,29.88,4.0,ENE,11.5,-,N/A,Rain,Light Rain,60,2013-02-25 19:50:00
3:50 PM,62.6,62.6,100,29.86,7.0,ENE,13.8,-,N/A,,Overcast,60,2013-02-25 20:50:00
4:50 PM,62.6,62.6,100,29.86,4.0,NE,10.4,-,N/A,Rain,Light Rain,50,2013-02-25 21:50:00
5:50 PM,62.6,60.8,94,29.92,2.0,West,12.7,-,N/A,Rain,Rain,260,2013-02-25 22:50:00
6:50 PM,59.0,59.0,100,29.90,1.5,NE,13.8,-,N/A,Rain,Light Rain,40,2013-02-25 23:50:00
7:50 PM,59.0,59.0,100,29.88,4.0,NE,9.2,-,N/A,Rain,Light Rain,40,2013-02-26 00:50:00
8:15 PM,60.8,60.8,100,29.87,4.0,NE,8.1,-,N/A,Rain,Light Rain,50,2013-02-26 01:15:00
8:35 PM,62.6,62.6,100,29.87,4.0,NE,3.5,-,N/A,Rain,Light Rain,50,2013-02-26 01:35:00
8:55 PM,62.6,62.6,100,29.86,3.0,NE,6.9,-,0.01,Rain,Light Rain,40,2013-02-26 01:55:00
9:15 PM,62.6,62.6,100,29.85,7.0,NE,6.9,-,N/A,,Overcast,40,2013-02-26 02:15:00
9:35 PM,62.6,62.6,100,29.84,8.0,ENE,5.8,-,N/A,,Overcast,60,2013-02-26 02:35:00
9:55 PM,64.4,64.4,100,29.85,8.0,Calm,Calm,-,N/A,,Overcast,0,2013-02-26 02:55:00
10:15 PM,64.4,64.4,100,29.84,7.0,NE,4.6,-,N/A,,Overcast,40,2013-02-26 03:15:00
10:35 PM,64.4,64.4,100,29.83,5.0,ENE,4.6,-,N/A,Rain,Light Rain,70,2013-02-26 03:35:00
10:55 PM,64.4,64.4,100,29.83,7.0,Calm,Calm,-,N/A,,Overcast,0,2013-02-26 03:55:00
11:15 PM,66.2,66.2,100,29.83,7.0,ENE,4.6,-,N/A,,Overcast,70,2013-02-26 04:15:00
11:55 PM,66.2,66.2,100,29.81,6.0,East,5.8,-,N/A,,Mostly Cloudy,100,2013-02-26 04:55:00